Location: Bonnoeuvre
(47.5278°N, 1.2360°W)
Time: 00:00:57
(UTC+00:00)

Daily predictions for brighter satellites

Satellite Brightness Start Highest point End
(mag) Time Altitude Azimuth Time Altitude Azimuth Time Altitude Azimuth
COSMOS 2406 4.5 03:52:21 36° ESE 03:52:21 36° ESE 03:55:54 10° SE
Cosmos 2082 Rocket 3.5 03:52:50 35° NE 03:52:50 35° NE 03:57:46 10° ESE
COSMOS 2455 3.8 03:57:05 43° ESE 03:57:05 43° ESE 04:01:08 10° SE
Cosmos 2278 Rocket 2.7 04:13:39 57° ESE 04:13:39 57° ESE 04:19:05 10° NE
USA 215 3.1 04:11:12 10° ESE 04:17:44 88° NE 04:17:51 87° NNW
BREEZE M DEB (TANK) 4.1 04:21:18 50° E 04:21:18 50° E 04:23:35 10° ENE
CZ-2C R/B 4.2 04:16:10 10° SE 04:21:04 34° ENE 04:25:56 10° N
Cosmos 540 Rocket 3.9 04:25:25 56° ENE 04:25:25 56° ENE 04:30:26 10° SE
Cosmos 2221 4.3 04:32:04 25° SSE 04:32:04 25° SSE 04:33:59 10° SSE
Cosmos 1833 Rocket 3.6 04:34:00 36° S 04:34:00 36° S 04:37:19 10° SSE
SL-8 R/B 4.3 04:35:05 55° ESE 04:35:05 55° ESE 04:39:05 10° ENE
Cosmos 841 Rocket 3.6 04:48:36 47° N 04:50:00 71° ENE 04:55:09 10° SSE
Cosmos 1763 Rocket 4.4 04:52:50 34° SSW 04:52:50 34° SSW 04:55:58 10° S
Envisat 3.6 04:53:57 10° NNE 04:58:58 56° E 05:03:57 10° S
SL-19 R/B 4.1 04:54:40 10° SSE 05:00:22 82° WSW 05:03:26 28° NNW
Cosmos 1076 Rocket 3.7 05:02:42 10° S 05:07:03 73° E 05:11:26 10° NNE
YAOGAN 6 2.8 05:03:30 10° NNE 05:07:12 70° ESE 05:10:52 10° S
COSMO-SKYMED 1 2.5 05:07:56 10° SSE 05:12:16 83° ENE 05:14:38 27° N
Cosmos 1867 4.2 05:10:50 25° NNW 05:13:52 52° NE 05:19:12 10° ESE
APEX 4.1 05:16:51 29° NE 05:17:02 29° NE 05:19:35 10° ESE
Cosmos 1464 Rocket 4.0 05:11:21 10° NNW 05:17:30 55° W 05:23:34 10° SSW
NOSS 3-2 (A) 3.9 05:12:52 10° SSW 05:18:16 56° ESE 05:24:28 10° NE
H-2A R/B 2.5 05:16:30 10° NNE 05:20:11 90° N 05:23:54 10° SSW
Helios 1B 4.4 05:19:40 10° S 05:23:58 69° WSW 05:25:50 33° NNW
CENTAUR R/B 3.3 05:19:24 10° SSW 05:24:59 51° ESE 05:31:40 10° NE
Gbstr 26 Del rocket 2.6 05:28:19 55° WNW 05:29:07 89° NNW 05:33:22 10° ESE
Cosmos 2208 Rocket 4.4 05:24:24 12° NNW 05:29:27 68° ENE 05:34:50 10° SSE
Meteor 2-3 Rocket 3.9 05:25:29 10° S 05:31:05 76° E 05:36:48 10° NNE
Cosmos 1814 Rocket 3.8 05:28:34 20° NNW 05:32:14 84° WSW 05:37:21 10° SSE
Landsat 5 3.5 05:28:16 10° S 05:32:46 77° WSW 05:36:50 13° NNW
COSMOS 2406 4.1 05:34:28 28° WSW 05:34:28 28° WSW 05:39:08 10° SSW
Cosmos 1842 Rocket 4.4 05:36:10 31° WSW 05:36:10 31° WSW 05:39:17 10° SSW
Cosmos 2082 Rocket 2.5 05:34:44 31° WNW 05:36:50 43° WSW 05:42:05 10° S
Meteor 1-26 Rocket 4.4 05:32:13 10° N 05:38:16 86° ENE 05:44:10 10° S
Cosmos 1850 Rocket 4.2 05:35:29 13° SW 05:40:04 48° WNW 05:45:16 10° NNE
COSMOS 2455 3.9 05:40:17 24° WSW 05:40:33 24° WSW 05:45:16 10° SSW
Cosmos 2297 4.1 05:35:46 10° SSW 05:41:28 68° ESE 05:47:11 10° NNE
CZ-4B R/B 4.1 05:39:24 10° ESE 05:41:49 18° ENE 05:44:12 10° NNE
Kosmos-917 3.7 05:43:21 35° WSW 05:44:24 62° NW 05:48:59 10° NE
USA 238 DEB 4.1 05:43:35 10° SSW 05:49:57 62° ESE 05:56:41 10° NE
USA 238 4.1 05:43:42 10° SSW 05:50:03 62° ESE 05:56:47 10° NE
OE (NEXTSAT) 4.5 05:49:10 35° WSW 05:50:23 62° S 05:53:45 10° ESE
Cosmos 1782 2.6 05:49:00 10° NNW 05:52:59 77° W 05:56:55 10° S
NOAA 11 4.3 05:50:01 10° NNE 05:55:30 80° ESE 06:00:59 10° SSW
CZ-2C R/B 3.4 05:52:26 10° NNE 05:57:11 62° ESE 06:02:02 10° S
Cosmos 2278 Rocket 3.0 05:55:34 22° W 05:57:58 29° NW 06:02:53 10° NNE
Cosmos 2034 Rocket 4.4 05:53:16 10° NNW 05:58:53 38° W 06:04:33 10° SSW
SKYMED 2 4.3 05:56:34 10° SSW 06:00:27 32° W 06:03:13 17° NW
USA 215 4.1 05:55:34 10° S 06:01:14 31° SW 06:05:12 18° WNW
CZ-2C R/B 3.1 05:56:04 10° SSW 06:01:16 41° W 06:06:25 10° NNW
Cosmos 1943 Rocket 2.2 05:55:49 10° SSW 06:01:30 88° WNW 06:07:14 10° NNE
Cosmos 1933 3.9 06:03:36 14° NNW 06:06:35 35° W 06:10:13 10° SSW
Cosmos 2344 3.6 06:00:25 10° WSW 06:07:44 61° NW 06:15:42 10° NE
IRAS Rocket 4.2 06:02:51 10° S 06:08:21 67° WSW 06:13:51 10° NNW
SJ-7 4.4 06:06:46 10° N 06:11:00 74° WNW 06:15:10 10° SSW
ADEOS 3.5 06:05:57 10° N 06:11:09 67° WNW 06:16:19 10° SSW
Meteor 1-31 Rocket 3.5 06:09:18 10° N 06:12:45 32° WNW 06:16:13 10° SW
Iridium 2 3.6 06:12:34 10° SSW 06:16:19 63° W 06:20:06 10° N
SL-8 R/B 3.7 06:13:03 16° W 06:16:53 79° N 06:21:40 10° E
Cosmos 2151 3.7 06:15:32 10° SW 06:19:21 31° WNW 06:23:13 10° N
Cosmos 2279 Rocket 4.0 06:14:01 10° N 06:20:14 82° W 06:26:25 10° S
Tsikada Rocket 4.3 06:16:23 10° SW 06:22:10 42° WNW 06:28:05 10° N
CZ-4C R/B 4.1 06:20:49 10° SSW 06:23:21 22° W 06:25:03 15° NW
Cosmos 1812 2.8 06:21:25 10° NNW 06:25:12 55° W 06:28:57 10° S
Cosmos 1634 Rocket 4.2 06:21:04 10° NNW 06:27:05 48° W 06:33:02 10° SSW
Cosmos 1939 Rocket 2.8 06:28:37 10° N 06:32:39 83° WNW 06:36:34 10° SSW
H-2A R/B 2.1 06:28:55 10° S 06:33:02 56° WSW 06:37:17 10° NNW
FALCON 9 DEB 3.3 06:32:13 10° SW 06:35:04 57° SSE 06:37:55 10° ENE
SMAP 3.2 06:31:35 10° NNE 06:36:16 85° ESE 06:40:55 10° SSW
Genesis I 3.3 06:32:11 10° NW 06:36:19 81° SW 06:40:23 10° SSE
Meteor 1-27 Rocket 4.4 06:32:02 10° N 06:37:33 58° ENE 06:43:07 10° SSE
Envisat 4.1 06:33:41 10° N 06:37:38 23° WNW 06:41:33 10° WSW
Cosmos 1766 Rocket 3.5 06:34:07 10° SSW 06:38:26 65° W 06:42:46 10° N
Cosmos 2098 Rocket 3.0 06:35:21 10° SSW 06:38:37 44° WNW 06:42:39 10° N
CZ-2D R/B 4.1 06:35:22 10° NNE 06:39:07 54° E 06:42:49 10° S
PSLV R/B 4.3 06:38:56 10° NNE 06:42:46 66° ESE 06:46:40 10° S
Cosmos 2297 Rocket 4.4 06:41:51 10° N 06:45:13 16° NE 06:48:34 10° ENE
FALCON 9 DEB 4.3 06:42:18 10° SW 06:45:32 45° SE 06:48:48 10° ENE
COSMO-SKYMED 1 4.5 06:47:45 10° WSW 06:49:01 11° W 06:50:19 10° WNW
FALCON 9 DEB 2.6 06:46:31 10° WSW 06:49:23 80° NNW 06:52:15 10° ENE
Cosmos 2369 Rocket 2.2 06:47:25 10° SSW 06:53:00 78° WNW 06:58:39 10° NNE
Cosmos 1340 Rocket 4.5 06:50:25 10° SSE 06:54:03 38° E 06:57:44 10° NNE
Cosmos 921 Rocket 3.8 06:51:42 10° NW 06:55:39 34° W 06:59:38 10° SSW
